This demonstration page uses our WeatherBlox Daily Observations layout. Learn more.

Left ArrowRight Arrow

Hourly Observations for March 30, 2020

Temp ( °F °C ) Dew Point ( °F °C ) Humidity (%) Winds ( mph kmh ) Pressure ( in mb ) Visibility ( mi km ) Precip ( " mm )
1:57 am 01:57 Clear 37 3 34 1 87 87 VRB 7 11 30.18 1022 10 16 0.00 0.00
2:58 am 02:58 Clear 41 5 30 -1 66 66 VRB 7 11 30.18 1022 10 16 0.00 0.00
3:58 am 03:58 Clear 41 5 32 0 70 70 VRB 7 11 30.18 1022 10 16 0.00 0.00
4:55 am 04:55 Clear 41 5 32 0 70 70 VRB 7 11 30.19 1022 10 16 0.00 0.00
5:56 am 05:56 Clear 39 4 30 -1 70 70 VRB 7 11 30.21 1023 10 16 0.00 0.00
6:57 am 06:57 Mostly Clear 39 4 30 -1 70 70 VRB 7 11 30.21 1023 10 16 0.00 0.00
7:55 am 07:55 Mostly Sunny 48 9 36 2 62 62 VRB 7 11 30.19 1022 10 16 0.00 0.00
8:52 am 08:52 Mostly Sunny 57 14 45 7 63 63 VRB 7 11 30.17 1022 10 16 0.00 0.00
10:56 am 10:56 Mostly Sunny 72 22 36 2 27 27 NNE 7 11 30.18 1022 10 16 0.00 0.00
11:56 am 11:56 Mostly Sunny 62 16.9 34 0.9 34 34 E 8 13 30.20 1023 10 16 0.00 0.00
12:56 pm 12:56 Sunny 66 19.1 35 1.6 31 31 E 8 13 30.14 1021 10 16 0.00 0.00
1:56 pm 13:56 Sunny 69 20.4 35 1.8 29 29 SE 7 11 30.09 1019 10 16 0.00 0.00
2:56 pm 14:56 Sunny 70 21.2 34 0.9 26 26 E 10 17 30.05 1018 10 16 0.00 0.00
3:56 pm 15:56 Sunny 71 21.6 30 -1 22 22 E 10 17 30.02 1016 10 16 0.00 0.00
4:56 pm 16:56 Cloudy 68 20 32 -0.1 26 26 ESE 12 19 30.02 1017 10 16 0.00 0.00
5:56 pm 17:56 Cloudy 67 19.3 32 -0.2 27 27 ESE 12 19 30.02 1017 10 16 0.00 0.00
6:56 pm 18:56 Cloudy 65 18.2 33 0.3 30 30 E 7 11 30.03 1017 10 16 0.00 0.00
7:56 pm 19:56 Partly Cloudy 61 15.9 33 0.4 35 35 E 10 17 30.05 1018 10 16 0.00 0.00
8:56 pm 20:56 Mostly Cloudy 58 14.7 31 -0.6 35 35 E 10 17 30.07 1018 10 16 0.00 0.00
9:56 pm 21:56 Cloudy 58 14.4 30 -1.3 34 34 E 12 19 30.08 1019 10 16 0.00 0.00
10:56 pm 22:56 Cloudy 56 13.6 28 -2 34 34 E 8 13 30.08 1019 10 16 0.00 0.00
11:56 pm 23:56 Cloudy 53 11.7 29 -1.8 39 39 E 3 6 30.09 1019 10 16 0.00 0.00

Powered by AerisWeather